カタログに戻る

YAOGAN-46

運用中軍事MEO
NORAD 66313·PAYLOAD·🇨🇳 China

打ち上げ Nov 3, 2025 から Wenchang Space Launch Site

Loading…

次のパス (今後24時間)

TLE

最新Source: Space-Track

元期: Sep 14, 2026, 12:36 UTC

1 66313U 25250A   26257.52527804 -.00000026  00000-0  00000-0 0  9997
2 66313  20.0590 282.6316 0005207 255.6170 104.3409  5.31209588 16846

AllMySatでYAOGAN-46をリアルタイム追跡

Download on the App Store